Location: Balsareny
(41.8670°N, 1.8830°E)
Time: 14:51:45
(UTC+01:00)

Envisat - Pass Details

Date: 04 December 2021
Orbit: 764 x 766 km, 98.2° (Epoch: 19 January)

Event Time Altitude Azimuth Distance (km) Brightness Sun altitude
Rises 06:32:08 0° 6° (N) 3,241 6.1 -16.5°
Reaches altitude 10° 06:34:32 10° 359° (N) 2,311 5.3 -16.1°
Maximum altitude 06:39:18 42° 290° (WNW) 1,082 3.3 -15.2°
Drops below altitude 10° 06:44:03 10° 220° (SW) 2,295 5.2 -14.4°
Sets 06:46:26 0° 214° (SW) 3,216 6.1 -14.0°
